| time (UTC) | temp C | wind direction | speed KPH | gust KPH | rain 1hr cm | rain 24hr cm | rain mn cm | humidity % | barometer mb |
| 20260507180726 | 16 | 345 | 1.6 | 3.2 | 0.00 | 0.00 | 0.00 | 44 | 1014.7 |
| 20260507180223 | 16 | 290 | 4.8 | 8.0 | 0.00 | 0.00 | 0.00 | 37 | 1014.7 |
| 20260507175719 | 16 | 279 | 4.8 | 8.0 | 0.00 | 0.00 | 0.00 | 39 | 1014.8 |
| 20260507175216 | 16 | 331 | 3.2 | 4.8 | 0.00 | 0.00 | 0.00 | 37 | 1014.8 |
| 20260507174713 | 16 | 327 | 1.6 | 4.8 | 0.00 | 0.00 | 0.00 | 39 | 1015.0 |
| 20260507174211 | 15 | 279 | 1.6 | 8.0 | 0.00 | 0.00 | 0.00 | 39 | 1014.9 |
| 20260507173708 | 16 | 26 | 4.8 | 4.8 | 0.00 | 0.00 | 0.00 | 39 | 1015.3 |
| 20260507173205 | 15 | 11 | 1.6 | 1.6 | 0.00 | 0.00 | 0.00 | 40 | 1014.9 |
| 20260507172701 | 15 | 5 | 4.8 | 9.7 | 0.00 | 0.00 | 0.00 | 42 | 1015.0 |
| 20260507172158 | 15 | 336 | 6.4 | 9.7 | 0.00 | 0.00 | 0.00 | 41 | 1015.3 |
| 20260507171653 | 15 | 230 | 3.2 | 8.0 | 0.00 | 0.00 | 0.00 | 41 | 1015.7 |
| 20260507171150 | 16 | 19 | 3.2 | 3.2 | 0.00 | 0.00 | 0.00 | 40 | 1015.4 |
| 20260507170647 | 15 | 31 | 0.0 | 0.0 | 0.00 | 0.00 | 0.00 | 38 | 1015.5 |
| 20260507170144 | 15 | 339 | 0.0 | 1.6 | 0.00 | 0.00 | 0.00 | 37 | 1015.5 |
| 20260507165640 | 15 | 320 | 4.8 | 8.0 | 0.00 | 0.00 | 0.00 | 38 | 1015.8 |
| 20260507165136 | 15 | 72 | 0.0 | 3.2 | 0.00 | 0.00 | 0.00 | 37 | 1015.9 |
| 20260507164632 | 15 | 290 | 3.2 | 4.8 | 0.00 | 0.00 | 0.00 | 40 | 1015.7 |
| 20260507164130 | 15 | 346 | 4.8 | 8.0 | 0.00 | 0.00 | 0.00 | 40 | 1016.0 |
| 20260507163627 | 15 | 359 | 1.6 | 1.6 | 0.00 | 0.00 | 0.00 | 41 | 1016.0 |
| 20260507163125 | 14 | 326 | 4.8 | 8.0 | 0.00 | 0.00 | 0.00 | 41 | 1016.1 |
| 20260507162620 | 14 | 54 | 1.6 | 3.2 | 0.00 | 0.00 | 0.00 | 42 | 1015.8 |
| 20260507162117 | 14 | 20 | 1.6 | 1.6 | 0.00 | 0.00 | 0.00 | 42 | 1015.5 |
| 20260507161613 | 14 | 11 | 1.6 | 1.6 | 0.00 | 0.00 | 0.00 | 42 | 1016.0 |
| 20260507161109 | 14 | 29 | 3.2 | 3.2 | 0.00 | 0.00 | 0.00 | 39 | 1015.9 |
| 20260507160600 | 14 | 21 | 0.0 | 1.6 | 0.00 | 0.00 | 0.00 | 45 | 1015.5 |
| 20260507160056 | 13 | 340 | 1.6 | 3.2 | 0.00 | 0.00 | 0.00 | 46 | 1016.1 |
| 20260507155551 | 13 | 349 | 8.0 | 12.9 | 0.00 | 0.00 | 0.00 | 45 | 1015.9 |
| 20260507155049 | 13 | 16 | 1.6 | 3.2 | 0.00 | 0.00 | 0.00 | 45 | 1015.9 |
| 20260507154546 | 13 | 287 | 0.0 | 0.0 | 0.00 | 0.00 | 0.00 | 45 | 1015.8 |
| 20260507154043 | 13 | 315 | 6.4 | 9.7 | 0.00 | 0.00 | 0.00 | 46 | 1015.8 |
| 20260507153540 | 13 | 351 | 3.2 | 3.2 | 0.00 | 0.00 | 0.00 | 48 | 1015.7 |
| 20260507153036 | 12 | 79 | 0.0 | 0.0 | 0.00 | 0.00 | 0.00 | 48 | 1015.9 |
| 20260507152532 | 12 | 39 | 0.0 | 1.6 | 0.00 | 0.00 | 0.00 | 48 | 1015.8 |
| 20260507152029 | 12 | 338 | 4.8 | 4.8 | 0.00 | 0.00 | 0.00 | 51 | 1015.9 |
| 20260507151524 | 12 | 10 | 0.0 | 1.6 | 0.00 | 0.00 | 0.00 | 52 | 1015.8 |
| 20260507151022 | 12 | 327 | 3.2 | 4.8 | 0.00 | 0.00 | 0.00 | 51 | 1015.8 |
| 20260507150519 | 11 | 4 | 3.2 | 4.8 | 0.00 | 0.00 | 0.00 | 52 | 1015.7 |
| 20260507150015 | 11 | 321 | 4.8 | 4.8 | 0.00 | 0.00 | 0.00 | 51 | 1015.8 |
| 20260507145510 | 11 | 287 | 4.8 | 4.8 | 0.00 | 0.00 | 0.00 | 51 | 1015.9 |
| 20260507145009 | 11 | 355 | 1.6 | 3.2 | 0.00 | 0.00 | 0.00 | 53 | 1015.9 |
| 20260507144505 | 11 | 310 | 1.6 | 3.2 | 0.00 | 0.00 | 0.00 | 53 | 1016.1 |
| 20260507144002 | 11 | 335 | 3.2 | 3.2 | 0.00 | 0.00 | 0.00 | 52 | 1015.9 |
| 20260507143459 | 11 | 29 | 0.0 | 0.0 | 0.00 | 0.00 | 0.00 | 53 | 1015.8 |
| 20260507142956 | 11 | 353 | 3.2 | 3.2 | 0.00 | 0.00 | 0.00 | 52 | 1015.8 |
| 20260507142451 | 11 | 1 | 1.6 | 3.2 | 0.00 | 0.00 | 0.00 | 54 | 1015.8 |
| 20260507141949 | 11 | 44 | 1.6 | 1.6 | 0.00 | 0.00 | 0.00 | 53 | 1015.7 |
| 20260507141444 | 10 | 4 | 1.6 | 1.6 | 0.00 | 0.00 | 0.00 | 56 | 1015.8 |
| 20260507140942 | 10 | 59 | 0.0 | 1.6 | 0.00 | 0.00 | 0.00 | 54 | 1016.0 |
| 20260507140438 | 10 | 345 | 0.0 | 0.0 | 0.00 | 0.00 | 0.00 | 55 | 1015.9 |
| 20260507135936 | 10 | 346 | 1.6 | 1.6 | 0.00 | 0.00 | 0.00 | 53 | 1015.9 |
| 20260507135433 | 10 | 44 | 0.0 | 0.0 | 0.00 | 0.00 | 0.00 | 52 | 1016.0 |
| 20260507134930 | 10 | 46 | 0.0 | 0.0 | 0.00 | 0.00 | 0.00 | 52 | 1015.9 |
| 20260507134427 | 10 | 50 | 0.0 | 0.0 | 0.00 | 0.00 | 0.00 | 55 | 1015.9 |
| 20260507133922 | 10 | 351 | 0.0 | 0.0 | 0.00 | 0.00 | 0.00 | 54 | 1015.9 |
| 20260507133419 | 10 | 13 | 1.6 | 3.2 | 0.00 | 0.00 | 0.00 | 56 | 1015.7 |
| 20260507132917 | 10 | 335 | 0.0 | 0.0 | 0.00 | 0.00 | 0.00 | 58 | 1015.8 |
| 20260507132413 | 9 | 28 | 0.0 | 0.0 | 0.00 | 0.00 | 0.00 | 58 | 1015.8 |
| 20260507131910 | 9 | 24 | 1.6 | 3.2 | 0.00 | 0.00 | 0.00 | 60 | 1015.8 |
| 20260507131407 | 9 | 51 | 1.6 | 3.2 | 0.00 | 0.00 | 0.00 | 61 | 1016.0 |
| 20260507130904 | 8 | 31 | 0.0 | 0.0 | 0.00 | 0.00 | 0.00 | 61 | 1015.8 |
| 20260507130401 | 8 | 11 | 0.0 | 0.0 | 0.00 | 0.00 | 0.00 | 65 | 1015.8 |
| 20260507125900 | 8 | 0 | 1.6 | 3.2 | 0.00 | 0.00 | 0.00 | 64 | 1015.5 |
| 20260507125357 | 8 | 35 | 0.0 | 0.0 | 0.00 | 0.00 | 0.00 | 65 | 1015.8 |
| 20260507124854 | 8 | 39 | 4.8 | 4.8 | 0.00 | 0.00 | 0.00 | 65 | 1015.8 |
| 20260507124350 | 8 | 42 | 0.0 | 0.0 | 0.00 | 0.00 | 0.00 | 66 | 1015.7 |
| 20260507123849 | 8 | 109 | 1.6 | 1.6 | 0.00 | 0.00 | 0.00 | 67 | 1015.9 |
| 20260507123345 | 8 | 25 | 0.0 | 0.0 | 0.00 | 0.00 | 0.00 | 67 | 1015.9 |
| 20260507122842 | 7 | 36 | 0.0 | 0.0 | 0.00 | 0.00 | 0.00 | 70 | 1016.1 |
| 20260507122337 | 7 | 34 | 0.0 | 0.0 | 0.00 | 0.00 | 0.00 | 71 | 1015.9 |
| 20260507121834 | 7 | 27 | 1.6 | 1.6 | 0.00 | 0.00 | 0.00 | 71 | 1016.1 |
| 20260507121329 | 7 | 44 | 0.0 | 0.0 | 0.00 | 0.00 | 0.00 | 72 | 1016.0 |
| 20260507120826 | 7 | 42 | 0.0 | 0.0 | 0.00 | 0.00 | 0.00 | 74 | 1015.9 |
| 20260507120322 | 7 | 33 | 0.0 | 0.0 | 0.00 | 0.00 | 0.00 | 74 | 1016.1 |
| 20260507115819 | 7 | 335 | 1.6 | 3.2 | 0.00 | 0.00 | 0.00 | 74 | 1016.2 |
| 20260507115315 | 6 | 37 | 0.0 | 0.0 | 0.00 | 0.00 | 0.00 | 76 | 1016.1 |
| 20260507114811 | 6 | 10 | 0.0 | 0.0 | 0.00 | 0.00 | 0.00 | 78 | 1016.0 |
| 20260507114308 | 6 | 35 | 0.0 | 0.0 | 0.00 | 0.00 | 0.00 | 78 | 1016.0 |
| 20260507113805 | 6 | 337 | 3.2 | 3.2 | 0.00 | 0.00 | 0.00 | 79 | 1016.0 |
| 20260507113302 | 6 | 1 | 0.0 | 1.6 | 0.00 | 0.00 | 0.00 | 80 | 1015.8 |
| 20260507112800 | 6 | 353 | 0.0 | 0.0 | 0.00 | 0.00 | 0.00 | 81 | 1015.9 |
| 20260507112256 | 6 | 346 | 0.0 | 1.6 | 0.00 | 0.00 | 0.00 | 82 | 1015.8 |
| 20260507111755 | 6 | 357 | 0.0 | 0.0 | 0.00 | 0.00 | 0.00 | 82 | 1015.8 |
| 20260507111250 | 5 | 340 | 0.0 | 0.0 | 0.00 | 0.00 | 0.00 | 83 | 1015.7 |
| 20260507110746 | 5 | 27 | 0.0 | 0.0 | 0.00 | 0.00 | 0.00 | 83 | 1015.3 |
| 20260507110243 | 5 | 11 | 0.0 | 0.0 | 0.00 | 0.00 | 0.00 | 83 | 1015.4 |
| 20260507105740 | 5 | 22 | 1.6 | 1.6 | 0.00 | 0.00 | 0.00 | 83 | 1015.2 |
| 20260507105236 | 6 | 29 | 0.0 | 0.0 | 0.00 | 0.00 | 0.00 | 82 | 1015.2 |
| 20260507104734 | 6 | 30 | 0.0 | 0.0 | 0.00 | 0.00 | 0.00 | 82 | 1015.0 |
| 20260507104230 | 6 | 12 | 0.0 | 0.0 | 0.00 | 0.00 | 0.00 | 82 | 1015.0 |
| 20260507103726 | 6 | 27 | 0.0 | 0.0 | 0.00 | 0.00 | 0.00 | 82 | 1015.1 |
| 20260507103223 | 6 | 25 | 0.0 | 0.0 | 0.00 | 0.00 | 0.00 | 82 | 1015.1 |
| 20260507102719 | 6 | 36 | 0.0 | 0.0 | 0.00 | 0.00 | 0.00 | 81 | 1015.1 |
| 20260507102215 | 6 | 28 | 0.0 | 1.6 | 0.00 | 0.00 | 0.00 | 82 | 1014.9 |
| 20260507101712 | 6 | 26 | 0.0 | 0.0 | 0.00 | 0.00 | 0.00 | 82 | 1015.1 |
| 20260507101207 | 6 | 6 | 0.0 | 0.0 | 0.00 | 0.00 | 0.00 | 83 | 1015.0 |
| 20260507100705 | 6 | 45 | 0.0 | 0.0 | 0.00 | 0.00 | 0.00 | 84 | 1015.0 |
| 20260507100203 | 6 | 40 | 0.0 | 0.0 | 0.00 | 0.00 | 0.00 | 85 | 1015.2 |
| 20260507095701 | 6 | 10 | 0.0 | 0.0 | 0.00 | 0.00 | 0.00 | 85 | 1015.1 |
| 20260507095157 | 6 | 343 | 0.0 | 0.0 | 0.00 | 0.00 | 0.00 | 85 | 1015.0 |
| 20260507094653 | 6 | 27 | 0.0 | 0.0 | 0.00 | 0.00 | 0.00 | 85 | 1015.0 |
| 20260507094150 | 6 | 15 | 0.0 | 0.0 | 0.00 | 0.00 | 0.00 | 84 | 1015.2 |
| 20260507093648 | 6 | 5 | 0.0 | 0.0 | 0.00 | 0.00 | 0.00 | 84 | 1015.2 |
| 20260507093146 | 6 | 351 | 1.6 | 1.6 | 0.00 | 0.00 | 0.00 | 84 | 1015.1 |
| 20260507092643 | 6 | 6 | 0.0 | 0.0 | 0.00 | 0.00 | 0.00 | 83 | 1015.1 |
| 20260507092139 | 7 | 11 | 0.0 | 0.0 | 0.00 | 0.00 | 0.00 | 83 | 1015.2 |
| 20260507091636 | 7 | 26 | 0.0 | 0.0 | 0.00 | 0.00 | 0.00 | 83 | 1014.8 |
| 20260507091132 | 7 | 328 | 1.6 | 1.6 | 0.00 | 0.00 | 0.00 | 83 | 1014.9 |
| 20260507090628 | 6 | 13 | 0.0 | 0.0 | 0.00 | 0.00 | 0.00 | 84 | 1014.8 |
| 20260507090125 | 6 | 18 | 0.0 | 0.0 | 0.00 | 0.00 | 0.00 | 84 | 1014.8 |
| 20260507085622 | 7 | 22 | 0.0 | 0.0 | 0.00 | 0.00 | 0.00 | 85 | 1014.8 |
| 20260507085119 | 6 | 22 | 0.0 | 0.0 | 0.00 | 0.00 | 0.00 | 84 | 1014.8 |
| 20260507084615 | 7 | 17 | 0.0 | 0.0 | 0.00 | 0.00 | 0.00 | 84 | 1014.8 |
| 20260507084112 | 7 | 22 | 0.0 | 0.0 | 0.00 | 0.00 | 0.00 | 84 | 1014.7 |
| 20260507083609 | 7 | 11 | 0.0 | 0.0 | 0.00 | 0.00 | 0.00 | 84 | 1014.7 |
| 20260507083106 | 7 | 11 | 0.0 | 0.0 | 0.00 | 0.00 | 0.00 | 84 | 1014.4 |
| 20260507082602 | 7 | 29 | 0.0 | 0.0 | 0.00 | 0.00 | 0.00 | 84 | 1014.5 |
| 20260507082058 | 7 | 11 | 0.0 | 0.0 | 0.00 | 0.00 | 0.00 | 84 | 1014.7 |
| 20260507081554 | 7 | 22 | 0.0 | 0.0 | 0.00 | 0.00 | 0.00 | 85 | 1014.6 |
| 20260507081052 | 7 | 11 | 0.0 | 1.6 | 0.00 | 0.00 | 0.00 | 85 | 1014.5 |
| 20260507080547 | 7 | 25 | 0.0 | 0.0 | 0.00 | 0.00 | 0.00 | 84 | 1014.7 |
| 20260507080044 | 7 | 25 | 0.0 | 0.0 | 0.00 | 0.00 | 0.00 | 84 | 1014.5 |
| 20260507075539 | 7 | 26 | 0.0 | 0.0 | 0.00 | 0.00 | 0.00 | 84 | 1014.6 |
| 20260507075036 | 7 | 27 | 0.0 | 0.0 | 0.00 | 0.00 | 0.00 | 83 | 1014.6 |
| 20260507074533 | 8 | 23 | 0.0 | 0.0 | 0.00 | 0.00 | 0.00 | 82 | 1014.4 |
| 20260507074031 | 8 | 359 | 0.0 | 0.0 | 0.00 | 0.00 | 0.00 | 82 | 1014.4 |
| 20260507073527 | 8 | 358 | 0.0 | 1.6 | 0.00 | 0.00 | 0.00 | 81 | 1014.7 |
| 20260507073024 | 8 | 0 | 0.0 | 0.0 | 0.00 | 0.00 | 0.00 | 81 | 1014.7 |
| 20260507072521 | 8 | 37 | 0.0 | 0.0 | 0.00 | 0.00 | 0.00 | 80 | 1014.8 |
| 20260507072018 | 8 | 354 | 0.0 | 0.0 | 0.00 | 0.00 | 0.00 | 80 | 1014.5 |
| 20260507071516 | 8 | 0 | 0.0 | 0.0 | 0.00 | 0.00 | 0.00 | 80 | 1014.4 |
| 20260507071012 | 8 | 0 | 0.0 | 0.0 | 0.00 | 0.00 | 0.00 | 80 | 1014.7 |
| 20260507070509 | 8 | 355 | 0.0 | 1.6 | 0.00 | 0.00 | 0.00 | 80 | 1014.7 |
| 20260507070010 | 8 | 309 | 1.6 | 1.6 | 0.00 | 0.00 | 0.00 | 80 | 1014.7 |
| 20260507065502 | 8 | 5 | 0.0 | 0.0 | 0.00 | 0.00 | 0.00 | 80 | 1014.4 |
| 20260507065000 | 8 | 0 | 0.0 | 0.0 | 0.00 | 0.00 | 0.00 | 80 | 1014.8 |
| 20260507064458 | 8 | 357 | 0.0 | 1.6 | 0.00 | 0.00 | 0.00 | 80 | 1014.7 |
| 20260507063956 | 8 | 3 | 0.0 | 0.0 | 0.00 | 0.00 | 0.00 | 81 | 1014.6 |
| 20260507063452 | 8 | 7 | 0.0 | 0.0 | 0.00 | 0.00 | 0.00 | 81 | 1014.5 |
| 20260507062949 | 8 | 1 | 0.0 | 0.0 | 0.00 | 0.00 | 0.00 | 81 | 1014.6 |
| 20260507062447 | 8 | 1 | 0.0 | 0.0 | 0.00 | 0.00 | 0.00 | 80 | 1014.7 |
| 20260507061944 | 8 | 1 | 0.0 | 0.0 | 0.00 | 0.00 | 0.00 | 79 | 1014.6 |
| 20260507061442 | 8 | 3 | 0.0 | 0.0 | 0.00 | 0.00 | 0.00 | 79 | 1014.8 |
| 20260507060940 | 8 | 9 | 0.0 | 0.0 | 0.00 | 0.00 | 0.00 | 79 | 1014.8 |
| 20260507060436 | 8 | 11 | 0.0 | 0.0 | 0.00 | 0.00 | 0.00 | 80 | 1014.8 |
| 20260507055933 | 8 | 4 | 0.0 | 0.0 | 0.00 | 0.00 | 0.00 | 80 | 1014.8 |
| 20260507055428 | 8 | 10 | 0.0 | 0.0 | 0.00 | 0.00 | 0.00 | 80 | 1014.7 |
| 20260507054925 | 8 | 15 | 0.0 | 0.0 | 0.00 | 0.00 | 0.00 | 81 | 1014.8 |
| 20260507054421 | 8 | 20 | 0.0 | 0.0 | 0.00 | 0.00 | 0.00 | 82 | 1014.5 |
| 20260507053919 | 8 | 20 | 0.0 | 0.0 | 0.00 | 0.00 | 0.00 | 81 | 1014.9 |
| 20260507053411 | 8 | 20 | 0.0 | 0.0 | 0.00 | 0.00 | 0.00 | 81 | 1014.8 |
| 20260507052909 | 8 | 20 | 0.0 | 0.0 | 0.00 | 0.00 | 0.00 | 82 | 1014.7 |
| 20260507052406 | 8 | 18 | 0.0 | 0.0 | 0.00 | 0.00 | 0.00 | 83 | 1014.9 |
| 20260507051903 | 8 | 17 | 0.0 | 0.0 | 0.00 | 0.00 | 0.00 | 83 | 1014.6 |
| 20260507051401 | 8 | 26 | 0.0 | 0.0 | 0.00 | 0.00 | 0.00 | 83 | 1015.0 |
| 20260507050857 | 8 | 26 | 0.0 | 0.0 | 0.00 | 0.00 | 0.00 | 83 | 1014.9 |
| 20260507050354 | 8 | 26 | 0.0 | 0.0 | 0.00 | 0.00 | 0.00 | 83 | 1014.8 |
| 20260507045851 | 8 | 26 | 0.0 | 0.0 | 0.00 | 0.00 | 0.00 | 84 | 1014.9 |
| 20260507045347 | 8 | 26 | 0.0 | 0.0 | 0.00 | 0.00 | 0.00 | 84 | 1014.8 |
| 20260507044845 | 8 | 26 | 0.0 | 0.0 | 0.00 | 0.00 | 0.00 | 85 | 1014.9 |
| 20260507044341 | 8 | 26 | 0.0 | 0.0 | 0.00 | 0.00 | 0.00 | 86 | 1014.6 |
| 20260507043837 | 8 | 26 | 0.0 | 0.0 | 0.00 | 0.00 | 0.00 | 86 | 1014.9 |
| 20260507043334 | 8 | 26 | 0.0 | 0.0 | 0.00 | 0.00 | 0.00 | 86 | 1015.1 |
| 20260507042830 | 8 | 26 | 0.0 | 0.0 | 0.00 | 0.00 | 0.00 | 86 | 1014.9 |
| 20260507042326 | 8 | 26 | 0.0 | 0.0 | 0.00 | 0.00 | 0.00 | 85 | 1014.6 |
| 20260507041823 | 8 | 26 | 0.0 | 0.0 | 0.00 | 0.00 | 0.00 | 85 | 1015.1 |
| 20260507041319 | 8 | 26 | 0.0 | 0.0 | 0.00 | 0.00 | 0.00 | 84 | 1015.2 |
| 20260507040817 | 8 | 26 | 0.0 | 0.0 | 0.00 | 0.00 | 0.00 | 82 | 1015.2 |
| 20260507040312 | 8 | 26 | 0.0 | 0.0 | 0.00 | 0.00 | 0.00 | 82 | 1015.2 |
| 20260507035808 | 9 | 26 | 0.0 | 0.0 | 0.00 | 1.73 | 1.73 | 82 | 1015.3 |
| 20260507035306 | 9 | 23 | 0.0 | 0.0 | 0.00 | 1.73 | 1.73 | 82 | 1015.2 |
| 20260507034802 | 9 | 23 | 0.0 | 0.0 | 0.00 | 1.73 | 1.73 | 82 | 1015.1 |
| 20260507034259 | 9 | 24 | 0.0 | 0.0 | 0.00 | 1.73 | 1.73 | 83 | 1015.0 |
| 20260507033757 | 9 | 24 | 0.0 | 0.0 | 0.00 | 1.73 | 1.73 | 84 | 1015.2 |
| 20260507033254 | 9 | 24 | 0.0 | 0.0 | 0.00 | 1.73 | 1.73 | 84 | 1015.3 |
| 20260507032751 | 9 | 24 | 0.0 | 0.0 | 0.00 | 1.73 | 1.73 | 82 | 1015.0 |
| 20260507032247 | 10 | 22 | 0.0 | 0.0 | 0.00 | 1.73 | 1.73 | 83 | 1014.7 |
| 20260507031744 | 9 | 22 | 0.0 | 0.0 | 0.00 | 1.73 | 1.73 | 82 | 1014.8 |
| 20260507031241 | 10 | 22 | 0.0 | 0.0 | 0.00 | 1.73 | 1.73 | 83 | 1014.9 |
| 20260507030737 | 10 | 22 | 0.0 | 0.0 | 0.00 | 1.73 | 1.73 | 80 | 1014.7 |
| 20260507030235 | 10 | 23 | 0.0 | 0.0 | 0.00 | 1.73 | 1.73 | 80 | 1014.8 |
| 20260507025732 | 10 | 25 | 0.0 | 0.0 | 0.00 | 1.73 | 1.73 | 80 | 1014.7 |
| 20260507025229 | 10 | 25 | 0.0 | 0.0 | 0.00 | 1.73 | 1.73 | 80 | 1014.8 |
| 20260507024727 | 10 | 25 | 0.0 | 0.0 | 0.00 | 1.73 | 1.73 | 80 | 1015.0 |
| 20260507024224 | 10 | 25 | 0.0 | 0.0 | 0.00 | 1.73 | 1.73 | 80 | 1014.9 |
| 20260507023720 | 10 | 25 | 0.0 | 0.0 | 0.00 | 1.73 | 1.73 | 80 | 1014.8 |
| 20260507023217 | 10 | 25 | 0.0 | 0.0 | 0.00 | 1.73 | 1.73 | 80 | 1014.7 |
| 20260507022714 | 10 | 25 | 0.0 | 0.0 | 0.00 | 1.73 | 1.73 | 80 | 1014.5 |
| 20260507022209 | 10 | 25 | 0.0 | 0.0 | 0.00 | 1.73 | 1.73 | 79 | 1014.6 |
| 20260507021706 | 10 | 26 | 0.0 | 0.0 | 0.00 | 1.73 | 1.73 | 79 | 1014.5 |
| 20260507021201 | 10 | 25 | 0.0 | 0.0 | 0.00 | 1.73 | 1.73 | 80 | 1014.5 |
| 20260507020701 | 10 | 25 | 0.0 | 0.0 | 0.00 | 1.73 | 1.73 | 81 | 1014.3 |
| 20260507020156 | 10 | 12 | 0.0 | 0.0 | 0.00 | 1.73 | 1.73 | 82 | 1014.4 |
| 20260507015654 | 10 | 12 | 0.0 | 0.0 | 0.00 | 1.73 | 1.73 | 81 | 1014.5 |
| 20260507015151 | 10 | 12 | 0.0 | 0.0 | 0.00 | 1.73 | 1.73 | 81 | 1014.3 |
| 20260507014648 | 11 | 12 | 0.0 | 0.0 | 0.00 | 1.73 | 1.73 | 82 | 1014.2 |
| 20260507014144 | 11 | 12 | 0.0 | 0.0 | 0.00 | 1.73 | 1.73 | 80 | 1014.3 |
| 20260507013641 | 11 | 12 | 0.0 | 0.0 | 0.00 | 1.73 | 1.73 | 79 | 1014.3 |
| 20260507013138 | 11 | 12 | 0.0 | 0.0 | 0.00 | 1.73 | 1.73 | 81 | 1014.7 |
| 20260507012635 | 11 | 12 | 0.0 | 0.0 | 0.00 | 1.73 | 1.73 | 80 | 1014.6 |
| 20260507012130 | 11 | 12 | 0.0 | 0.0 | 0.00 | 1.73 | 1.73 | 81 | 1014.2 |
| 20260507011629 | 11 | 12 | 0.0 | 0.0 | 0.00 | 1.73 | 1.73 | 78 | 1014.2 |
| 20260507011125 | 11 | 12 | 0.0 | 0.0 | 0.00 | 1.73 | 1.73 | 77 | 1014.2 |
| 20260507010620 | 11 | 12 | 0.0 | 0.0 | 0.00 | 1.73 | 1.73 | 78 | 1014.3 |
| 20260507010116 | 11 | 12 | 0.0 | 0.0 | 0.00 | 1.73 | 1.73 | 77 | 1014.3 |
| 20260507005614 | 12 | 12 | 0.0 | 0.0 | 0.00 | 1.73 | 1.73 | 77 | 1014.1 |
| 20260507005110 | 12 | 12 | 0.0 | 0.0 | 0.00 | 1.73 | 1.73 | 73 | 1014.0 |
| 20260507004607 | 12 | 12 | 0.0 | 0.0 | 0.00 | 1.73 | 1.73 | 72 | 1013.9 |
| 20260507004104 | 12 | 12 | 0.0 | 0.0 | 0.00 | 1.73 | 1.73 | 71 | 1014.1 |
| 20260507003600 | 12 | 12 | 0.0 | 0.0 | 0.00 | 1.73 | 1.73 | 70 | 1014.0 |
| 20260507003055 | 12 | 16 | 0.0 | 0.0 | 0.00 | 1.73 | 1.73 | 67 | 1014.1 |
| 20260507002552 | 13 | 12 | 0.0 | 0.0 | 0.00 | 1.73 | 1.73 | 65 | 1013.9 |
| 20260507002048 | 13 | 1 | 0.0 | 1.6 | 0.00 | 1.73 | 1.73 | 65 | 1014.0 |
| 20260507001544 | 13 | 5 | 0.0 | 1.6 | 0.00 | 1.73 | 1.73 | 64 | 1013.9 |
| 20260507001042 | 13 | 4 | 0.0 | 0.0 | 0.00 | 1.73 | 1.73 | 64 | 1014.0 |
| 20260507000538 | 13 | 344 | 0.0 | 0.0 | 0.00 | 1.73 | 1.73 | 64 | 1013.6 |
| 20260507000034 | 13 | 12 | 0.0 | 0.0 | 0.00 | 1.73 | 1.73 | 64 | 1013.6 |
| 20260506235532 | 13 | 7 | 1.6 | 1.6 | 0.00 | 1.73 | 1.73 | 63 | 1013.5 |
| 20260506235027 | 13 | 346 | 1.6 | 3.2 | 0.00 | 1.73 | 1.73 | 63 | 1013.7 |
| 20260506234525 | 13 | 312 | 3.2 | 3.2 | 0.00 | 1.73 | 1.73 | 62 | 1013.9 |
| 20260506234022 | 13 | 350 | 1.6 | 1.6 | 0.00 | 1.73 | 1.73 | 64 | 1013.6 |
| 20260506233518 | 13 | 280 | 0.0 | 1.6 | 0.00 | 1.73 | 1.73 | 63 | 1013.7 |
| 20260506233015 | 13 | 348 | 1.6 | 1.6 | 0.00 | 1.73 | 1.73 | 63 | 1013.4 |
| 20260506232511 | 13 | 284 | 4.8 | 8.0 | 0.00 | 1.73 | 1.73 | 63 | 1013.5 |
| 20260506232007 | 14 | 31 | 0.0 | 0.0 | 0.00 | 1.73 | 1.73 | 65 | 1013.5 |
| 20260506231505 | 14 | 299 | 1.6 | 1.6 | 0.00 | 1.73 | 1.73 | 64 | 1013.6 |
| 20260506231002 | 14 | 25 | 0.0 | 0.0 | 0.00 | 1.73 | 1.73 | 63 | 1013.3 |
| 20260506230458 | 14 | 310 | 1.6 | 1.6 | 0.00 | 1.73 | 1.73 | 63 | 1013.1 |
| 20260506225955 | 14 | 14 | 0.0 | 0.0 | 0.00 | 1.73 | 1.73 | 63 | 1013.0 |
| 20260506225452 | 14 | 347 | 0.0 | 1.6 | 0.00 | 1.73 | 1.73 | 61 | 1012.8 |
| 20260506224949 | 14 | 338 | 0.0 | 1.6 | 0.00 | 1.73 | 1.73 | 62 | 1012.8 |
| 20260506224446 | 15 | 334 | 1.6 | 1.6 | 0.00 | 1.73 | 1.73 | 63 | 1013.0 |
| 20260506223937 | 15 | 276 | 1.6 | 3.2 | 0.00 | 1.73 | 1.73 | 62 | 1012.9 |
| 20260506223432 | 15 | 6 | 0.0 | 0.0 | 0.00 | 1.73 | 1.73 | 63 | 1012.9 |
| 20260506222930 | 15 | 357 | 0.0 | 1.6 | 0.00 | 1.73 | 1.73 | 60 | 1012.9 |
| 20260506222426 | 15 | 24 | 0.0 | 1.6 | 0.00 | 1.73 | 1.73 | 60 | 1012.8 |
| 20260506221923 | 15 | 22 | 0.0 | 1.6 | 0.00 | 1.73 | 1.73 | 61 | 1012.8 |
| 20260506221420 | 15 | 350 | 1.6 | 1.6 | 0.00 | 1.73 | 1.73 | 59 | 1012.8 |
| 20260506220918 | 15 | 241 | 3.2 | 4.8 | 0.00 | 1.73 | 1.73 | 59 | 1012.7 |
| 20260506220413 | 15 | 6 | 0.0 | 0.0 | 0.00 | 1.73 | 1.73 | 59 | 1012.8 |
| 20260506215910 | 15 | 14 | 0.0 | 0.0 | 0.00 | 1.73 | 1.73 | 58 | 1012.9 |
| 20260506215406 | 15 | 342 | 0.0 | 1.6 | 0.00 | 1.73 | 1.73 | 59 | 1013.0 |
| 20260506214902 | 15 | 337 | 1.6 | 3.2 | 0.00 | 1.73 | 1.73 | 57 | 1013.2 |
| 20260506214359 | 15 | 277 | 1.6 | 4.8 | 0.00 | 1.73 | 1.73 | 60 | 1012.9 |
| 20260506213857 | 15 | 321 | 1.6 | 1.6 | 0.00 | 1.73 | 1.73 | 59 | 1013.4 |
| 20260506213354 | 15 | 288 | 1.6 | 3.2 | 0.00 | 1.73 | 1.73 | 59 | 1013.3 |
| 20260506212851 | 15 | 31 | 0.0 | 0.0 | 0.00 | 1.73 | 1.73 | 60 | 1013.2 |
| 20260506212347 | 15 | 19 | 0.0 | 0.0 | 0.00 | 1.73 | 1.73 | 60 | 1013.2 |
| 20260506211842 | 15 | 78 | 0.0 | 0.0 | 0.00 | 1.73 | 1.73 | 59 | 1013.1 |
| 20260506211338 | 15 | 16 | 0.0 | 0.0 | 0.00 | 1.73 | 1.73 | 61 | 1013.2 |
| 20260506210836 | 15 | 348 | 1.6 | 1.6 | 0.00 | 1.73 | 1.73 | 60 | 1013.0 |
| 20260506210333 | 15 | 315 | 1.6 | 1.6 | 0.00 | 1.73 | 1.73 | 60 | 1013.1 |
| 20260506205830 | 15 | 305 | 3.2 | 4.8 | 0.00 | 1.73 | 1.73 | 60 | 1013.2 |
| 20260506205325 | 15 | 31 | 0.0 | 0.0 | 0.00 | 1.73 | 1.73 | 60 | 1013.2 |
| 20260506204817 | 15 | 18 | 0.0 | 1.6 | 0.00 | 1.73 | 1.73 | 61 | 1012.9 |
| 20260506204314 | 16 | 31 | 0.0 | 1.6 | 0.00 | 1.73 | 1.73 | 58 | 1012.9 |
| 20260506203812 | 15 | 10 | 0.0 | 1.6 | 0.00 | 1.73 | 1.73 | 57 | 1012.7 |
| 20260506203309 | 16 | 42 | 1.6 | 3.2 | 0.00 | 1.73 | 1.73 | 55 | 1012.8 |
| 20260506202806 | 16 | 342 | 0.0 | 1.6 | 0.00 | 1.73 | 1.73 | 56 | 1012.8 |
| 20260506202306 | 16 | 11 | 0.0 | 0.0 | 0.00 | 1.73 | 1.73 | 56 | 1013.1 |
| 20260506201759 | 15 | 27 | 0.0 | 0.0 | 0.00 | 1.73 | 1.73 | 53 | 1013.0 |
| 20260506201256 | 15 | 8 | 0.0 | 0.0 | 0.00 | 1.73 | 1.73 | 56 | 1013.4 |
| 20260506200753 | 15 | 322 | 1.6 | 1.6 | 0.00 | 1.73 | 1.73 | 55 | 1013.3 |
| 20260506200243 | 15 | 341 | 1.6 | 3.2 | 0.00 | 1.73 | 1.73 | 54 | 1013.1 |
| 20260506195740 | 16 | 49 | 0.0 | 0.0 | 0.00 | 1.73 | 1.73 | 55 | 1013.0 |
| 20260506195236 | 16 | 18 | 0.0 | 1.6 | 0.00 | 1.73 | 1.73 | 55 | 1013.1 |
| 20260506194734 | 15 | 287 | 3.2 | 3.2 | 0.00 | 1.73 | 1.73 | 55 | 1013.1 |
| 20260506194230 | 16 | 350 | 3.2 | 3.2 | 0.00 | 1.73 | 1.73 | 56 | 1013.1 |
| 20260506193728 | 16 | 30 | 0.0 | 0.0 | 0.00 | 1.73 | 1.73 | 56 | 1012.8 |
| 20260506193224 | 16 | 10 | 0.0 | 1.6 | 0.00 | 1.73 | 1.73 | 58 | 1013.0 |
| 20260506192721 | 16 | 56 | 1.6 | 1.6 | 0.00 | 1.73 | 1.73 | 58 | 1013.3 |
| 20260506192218 | 16 | 349 | 1.6 | 3.2 | 0.00 | 1.73 | 1.73 | 56 | 1013.1 |
| 20260506191715 | 16 | 34 | 3.2 | 3.2 | 0.00 | 1.73 | 1.73 | 57 | 1013.4 |
| 20260506191211 | 17 | 35 | 0.0 | 0.0 | 0.00 | 1.73 | 1.73 | 56 | 1013.3 |
| 20260506190708 | 17 | 95 | 1.6 | 3.2 | 0.00 | 1.73 | 1.73 | 56 | 1013.2 |
| 20260506190204 | 16 | 16 | 1.6 | 1.6 | 0.00 | 1.73 | 1.73 | 60 | 1013.1 |
| 20260506185702 | 16 | 304 | 3.2 | 3.2 | 0.00 | 1.73 | 1.73 | 56 | 1013.0 |
| 20260506185158 | 16 | 14 | 1.6 | 3.2 | 0.00 | 1.73 | 1.73 | 57 | 1012.9 |
| 20260506184656 | 17 | 17 | 1.6 | 3.2 | 0.00 | 1.73 | 1.73 | 57 | 1012.8 |
| 20260506184153 | 16 | 25 | 1.6 | 1.6 | 0.00 | 1.73 | 1.73 | 58 | 1012.9 |
| 20260506183650 | 16 | 322 | 0.0 | 1.6 | 0.00 | 1.73 | 1.73 | 60 | 1012.9 |
| 20260506183145 | 16 | 286 | 3.2 | 3.2 | 0.00 | 1.73 | 1.73 | 56 | 1012.8 |
| 20260506182643 | 16 | 345 | 1.6 | 3.2 | 0.00 | 1.73 | 1.73 | 59 | 1012.8 |
| 20260506182140 | 16 | 304 | 3.2 | 3.2 | 0.00 | 1.73 | 1.73 | 61 | 1012.6 |
| 20260506181638 | 16 | 14 | 0.0 | 0.0 | 0.00 | 1.73 | 1.73 | 59 | 1012.3 |
| 20260506181135 | 16 | 333 | 1.6 | 1.6 | 0.00 | 1.73 | 1.73 | 61 | 1012.6 |